[[{"header":{"parameterUnit":"m.s-1","parameterCategory":1,"la1":30.2991,"la2":30.254,"lo1":-89.0895,"lo2":-89.0444,"dy":0.0017,"dx":0.0017,"nx":28,"ny":28,"refTime":"2024-04-19T21:00:00:Z","depth":0,"parameterNumber":2,"parameterNumberName":"U-component_of_WINDS"},"data":[0,0,0,0,0,0,0,0,0,0,0,0,0,0,0,0,0,0,0,0,0,0,0,0,0,0,0,0,0,0,0,0,0,0,0,0,0,0,0,0,0,0,0,0,0,0,0,0,0,0,0,0,0,0,0,0,0,0,-0.8053,-0.8053,0,-0.8073,-0.8074,-0.8074,-0.8042,-0.8041,-0.804,-0.8038,-0.8061,-0.8063,-0.8064,0,0,0,0,0,0,0,0,0,0,0,0,0,-0.7985,-0.7987,-0.8053,-0.8053,-0.8053,-0.8073,-0.8074,-0.8074,-0.8042,-0.8041,-0.8039,-0.8038,-0.8061,-0.8062,-0.8064,0,0,0,0,0,0,0,0,0,0,0,0,0,-0.8011,-0.7987,-0.8053,-0.804,-0.8039,-0.8073,-0.8074,-0.8074,-0.8042,-0.8041,-0.8039,-0.8037,-0.806,-0.8062,-0.8065,-0.8114,0,0,-0.8072,-0.8073,0,0,0,0,0,0,0,0,-0.801,-0.8014,-0.8041,-0.804,-0.8039,-0.8053,-0.8058,-0.8087,-0.8043,-0.8041,-0.8038,-0.8036,-0.806,-0.8062,-0.807,-0.8115,-0.8116,-0.8072,-0.8074,-0.8075,-0.8076,0,0,0,0,0,0,0,-0.8008,-0.8013,-0.8061,-0.8042,-0.8041,-0.8033,-0.8035,-0.8064,-0.806,-0.8041,-0.8039,-0.8041,-0.8059,-0.8068,-0.807,-0.8116,-0.8072,-0.8075,-0.8076,-0.8077,-0.8201,-0.8203,0,0,0,0,0,0,-0.8008,-0.8011,-0.806,-0.8061,-0.802,-0.8035,-0.8037,-0.8051,-0.8059,-0.8059,-0.8043,-0.804,-0.8064,-0.8067,-0.8071,-0.8129,-0.8075,-0.8077,-0.8079,-0.82,-0.8202,-0.8204,0,0,0,0,0,0,-0.8006,-0.8012,-0.8059,-0.8036,-0.8041,-0.8038,-0.8053,-0.8052,-0.806,-0.8061,-0.806,-0.8052,-0.8063,-0.8067,-0.8103,-0.8129,-0.8078,-0.8081,-0.8197,-0.82,-0.8203,-0.8245,0,0,0,0,0,0,-0.8005,-0.8012,-0.8031,-0.8036,-0.8043,-0.8091,-0.8055,-0.8053,-0.8065,-0.8061,-0.8069,-0.8069,-0.8062,-0.81,-0.8105,-0.8132,-0.8083,-0.8195,-0.8199,-0.8202,-0.8241,-0.8249,-0.8255,0,0,0,0,0,-0.8002,-0.8042,-0.8032,-0.8038,-0.8066,-0.8093,-0.8096,-0.8087,-0.8067,-0.8085,-0.8085,-0.8069,-0.8125,-0.8103,-0.811,-0.8137,-0.8193,-0.8198,-0.8202,-0.8238,-0.8247,-0.8255,0,0,0,0,0,0,-0.804,-0.8043,-0.8031,-0.8074,-0.8083,-0.8087,-0.8111,-0.8097,-0.8113,-0.8109,-0.8097,-0.8099,-0.8137,-0.814,-0.8116,-0.8185,-0.8156,-0.8161,-0.8181,-0.819,-0.8197,-0.8196,-0.8085,0,0,0,0,0,-0.8053,-0.8075,-0.8076,-0.8114,-0.8119,-0.8114,-0.8125,-0.8117,-0.8127,-0.8131,-0.8133,-0.8143,-0.8163,-0.8177,-0.8195,-0.8241,-0.8242,-0.8263,-0.827,-0.8275,-0.8281,-0.8305,-0.8314,-0.8217,-0.8217,-0.8217,0,0,-0.8081,-0.8085,-0.81,-0.8121,-0.8128,-0.815,-0.8118,-0.8143,-0.816,-0.8135,-0.8169,-0.8171,-0.8181,-0.8222,-0.824,-0.8226,-0.8308,-0.8281,-0.8285,-0.8287,-0.831,-0.832,-0.8328,-0.822,-0.8219,-0.8219,0,0,-0.8144,-0.8149,-0.818,-0.8187,-0.8197,-0.8193,-0.8201,-0.8206,-0.8207,-0.824,-0.8222,-0.8241,-0.8276,-0.8284,-0.8292,-0.8356,-0.8342,-0.8363,-0.84,-0.8424,-0.8431,-0.8438,-0.8461,-0.847,-0.8368,-0.8368,-0.8368,0,-0.8177,-0.8211,-0.8199,-0.8225,-0.8236,-0.8213,-0.8245,-0.8252,-0.8267,-0.8275,-0.8258,-0.83,-0.8306,-0.8348,-0.8364,-0.8371,-0.838,-0.8362,-0.8431,-0.8438,-0.8444,-0.8466,-0.8475,-0.837,-0.837,-0.837,-0.837,0,-0.8251,-0.8275,-0.8299,-0.8314,-0.8327,-0.8356,-0.8349,-0.8363,-0.8353,-0.8352,-0.8386,-0.8391,-0.841,-0.8419,-0.841,-0.846,-0.8451,-0.8433,-0.8404,-0.8456,-0.8476,-0.8485,-0.8374,-0.8373,-0.8372,-0.8372,0,0,-0.834,-0.8347,-0.8356,-0.8362,-0.8371,-0.8389,-0.8417,-0.8434,-0.8447,-0.8458,-0.8481,-0.851,-0.8493,-0.8503,-0.8495,-0.8516,-0.8566,-0.8495,-0.8495,-0.8509,-0.8622,-0.8636,-0.8646,-0.8556,-0.8557,-0.8559,-0.8621,0,-0.8402,-0.8451,-0.844,-0.8488,-0.851,-0.8487,-0.8512,-0.8519,-0.8518,-0.8536,-0.8534,-0.8555,-0.8531,-0.8537,-0.8556,-0.8556,-0.8589,-0.8551,-0.8578,-0.8579,-0.8577,-0.8657,-0.8672,-0.8731,-0.8629,-0.863,-0.8631,0,-0.8482,-0.8496,-0.8546,-0.855,-0.8558,-0.8581,-0.8596,-0.8613,-0.8621,-0.8619,-0.8629,-0.8616,-0.8644,-0.8614,-0.8652,-0.8626,-0.8636,-0.8638,-0.864,-0.8643,-0.8609,-0.8663,-0.8749,-0.8758,-0.8644,-0.8643,-0.8642,0,-0.8543,-0.8573,-0.8607,-0.8612,-0.8618,-0.8634,-0.8637,-0.8644,-0.8655,-0.8668,-0.8675,-0.8691,-0.8701,-0.8713,-0.8705,-0.8684,-0.8745,-0.8714,-0.8744,-0.8744,-0.8759,-0.8758,-0.8849,-0.8764,-0.8764,-0.8764,-0.8763,0,-0.8614,-0.8646,-0.8634,-0.8655,-0.8689,-0.8676,-0.871,-0.8711,-0.8717,-0.8737,-0.8718,-0.8738,-0.8726,-0.8744,-0.8738,-0.8771,-0.8775,-0.8774,-0.8772,-0.8776,-0.8776,-0.8783,-0.8779,-0.8766,-0.8765,-0.8765,-0.8765,0,-0.8688,-0.8681,-0.8716,-0.8718,-0.8719,-0.8745,-0.8747,-0.8766,-0.8762,-0.8788,-0.8794,-0.8789,-0.8809,-0.8802,-0.8825,-0.882,-0.8862,-0.8854,-0.8859,-0.8858,-0.8888,-0.8886,-0.8988,-0.9,-0.8906,-0.8907,-0.8908,0,-0.8735,-0.8758,-0.8763,-0.8775,-0.8779,-0.8799,-0.881,-0.8798,-0.881,-0.882,-0.8839,-0.8857,-0.8872,-0.8906,-0.8905,-0.8922,-0.8915,-0.8949,-0.8917,-0.892,-0.8916,-0.8915,-0.8917,-0.8956,-0.8957,-0.8958,-0.8959,0,-0.8819,-0.8814,-0.883,-0.8845,-0.8859,-0.887,-0.888,-0.8891,-0.8879,-0.8894,-0.8915,-0.8926,-0.8948,-0.8968,-0.8982,-0.8985,-0.8971,-0.8968,-0.8976,-0.8981,-0.8983,-0.8983,-0.8878,-0.8967,-0.8966,-0.8965,-0.8965,-0.8964,-0.8881,-0.89,-0.8906,-0.8925,-0.8931,-0.894,-0.8958,-0.8957,-0.8974,-0.8991,-0.8982,-0.9006,-0.9013,-0.9031,-0.9036,-0.9055,-0.9042,-0.9053,-0.9056,-0.9059,-0.9063,-0.898,-0.9058,-0.9057,-0.9057,-0.9057,-0.9057,0,-0.8964,-0.8966,-0.8984,-0.8998,-0.9012,-0.8996,-0.9005,-0.9019,-0.904,-0.9047,-0.9062,-0.9085,-0.9103,-0.9103,-0.9119,-0.9134,-0.9128,-0.9139,-0.9138,-0.9139,-0.9074,-0.9066,-0.9144,-0.9144,-0.9144,-0.9144,-0.9144,-0.9144,-0.9009,-0.9042,-0.9037,-0.9072,-0.9074,-0.9098,-0.9105,-0.9113,-0.9119,-0.9146,-0.916,-0.9159,-0.9163,-0.918,-0.9196,-0.9195,-0.9202,-0.9216,-0.9213,-0.9153,-0.9144,-0.9136,-0.9128,-0.9218,-0.9218,-0.9277,-0.9277,-0.9278]},{"header":{"parameterUnit":"m.s-1","parameterCategory":1,"la1":30.2991,"la2":30.254,"lo1":-89.0895,"lo2":-89.0444,"dy":0.0017,"dx":0.0017,"nx":28,"ny":28,"refTime":"2024-04-19T21:00:00:Z","depth":0,"parameterNumber":3,"parameterNumberName":"V-component_of_WINDS"},"data":[0,0,0,0,0,0,0,0,0,0,0,0,0,0,0,0,0,0,0,0,0,0,0,0,0,0,0,0,0,0,0,0,0,0,0,0,0,0,0,0,0,0,0,0,0,0,0,0,0,0,0,0,0,0,0,0,0,0,-6.255,-6.255,0,-6.2579,-6.258,-6.258,-6.2491,-6.2488,-6.2486,-6.2483,-6.2509,-6.2512,-6.2515,0,0,0,0,0,0,0,0,0,0,0,0,0,-6.2413,-6.2416,-6.255,-6.255,-6.2551,-6.2579,-6.258,-6.258,-6.2492,-6.2488,-6.2485,-6.2482,-6.2508,-6.2512,-6.2515,0,0,0,0,0,0,0,0,0,0,0,0,0,-6.2461,-6.2417,-6.255,-6.251,-6.2507,-6.2579,-6.258,-6.258,-6.2492,-6.2488,-6.2484,-6.248,-6.2507,-6.2511,-6.2516,-6.2627,0,0,-6.2531,-6.2533,0,0,0,0,0,0,0,0,-6.2458,-6.2466,-6.2516,-6.2513,-6.251,-6.2528,-6.2541,-6.2596,-6.2493,-6.2498,-6.2483,-6.2478,-6.2518,-6.2522,-6.2536,-6.2628,-6.2629,-6.2531,-6.2534,-6.2536,-6.2537,0,0,0,0,0,0,0,-6.2455,-6.2464,-6.2561,-6.2516,-6.2513,-6.2489,-6.2492,-6.2551,-6.253,-6.2497,-6.2491,-6.2496,-6.2516,-6.2532,-6.2536,-6.2629,-6.2531,-6.2535,-6.2538,-6.254,-6.2814,-6.2818,0,0,0,0,0,0,-6.2457,-6.2462,-6.256,-6.2562,-6.2473,-6.2495,-6.2498,-6.2526,-6.2529,-6.2526,-6.2499,-6.2491,-6.2525,-6.253,-6.2536,-6.2667,-6.2536,-6.254,-6.2543,-6.281,-6.2815,-6.282,0,0,0,0,0,0,-6.2455,-6.2467,-6.2559,-6.251,-6.252,-6.2502,-6.2534,-6.2529,-6.2544,-6.2531,-6.2526,-6.252,-6.2522,-6.253,-6.2605,-6.2666,-6.2543,-6.2547,-6.2804,-6.2811,-6.2817,-6.2928,0,0,0,0,0,0,-6.2451,-6.2467,-6.2509,-6.2512,-6.2523,-6.2629,-6.2538,-6.2532,-6.2553,-6.2544,-6.2549,-6.2546,-6.252,-6.2599,-6.261,-6.2671,-6.2551,-6.2799,-6.2807,-6.2815,-6.2919,-6.2937,-6.2953,0,0,0,0,0,-6.2447,-6.2538,-6.2512,-6.2524,-6.2577,-6.2633,-6.2639,-6.2609,-6.2559,-6.2601,-6.2592,-6.2545,-6.2658,-6.2607,-6.2619,-6.2682,-6.2795,-6.2805,-6.2815,-6.2911,-6.2934,-6.2953,0,0,0,0,0,0,-6.2541,-6.2538,-6.2509,-6.2604,-6.262,-6.2618,-6.267,-6.2634,-6.2663,-6.2652,-6.2612,-6.2614,-6.2697,-6.2697,-6.264,-6.279,-6.2718,-6.273,-6.2787,-6.2808,-6.2825,-6.2823,-6.2555,0,0,0,0,0,-6.2573,-6.2621,-6.2615,-6.2699,-6.2709,-6.2689,-6.2712,-6.2687,-6.2701,-6.2707,-6.2703,-6.2718,-6.2756,-6.2782,-6.2817,-6.2918,-6.2918,-6.2968,-6.2985,-6.2999,-6.3011,-6.3065,-6.3087,-6.2852,-6.2852,-6.2852,0,0,-6.2639,-6.2644,-6.2676,-6.2718,-6.2728,-6.2777,-6.2695,-6.2749,-6.2785,-6.2714,-6.2786,-6.2785,-6.2798,-6.2887,-6.2926,-6.289,-6.3076,-6.3012,-6.3024,-6.3027,-6.3077,-6.3099,-6.3119,-6.2859,-6.2858,-6.2857,0,0,-6.2785,-6.2794,-6.2866,-6.2877,-6.2893,-6.2879,-6.2897,-6.2901,-6.2898,-6.2969,-6.2918,-6.2959,-6.3026,-6.3037,-6.3052,-6.3205,-6.3162,-6.3217,-6.3307,-6.3361,-6.3379,-6.3395,-6.3449,-6.3469,-6.3228,-6.3228,-6.3229,0,-6.2865,-6.2939,-6.2907,-6.2966,-6.2986,-6.2927,-6.2999,-6.3011,-6.3036,-6.3051,-6.301,-6.3094,-6.3098,-6.319,-6.3228,-6.3241,-6.3259,-6.3216,-6.3379,-6.3395,-6.341,-6.3461,-6.3482,-6.3235,-6.3234,-6.3234,-6.3233,0,-6.3036,-6.3088,-6.3144,-6.3173,-6.3199,-6.3264,-6.3241,-6.3271,-6.3245,-6.3235,-6.3309,-6.3313,-6.3347,-6.3367,-6.3341,-6.3455,-6.3432,-6.3386,-6.3313,-6.3439,-6.3487,-6.3506,-6.3244,-6.3242,-6.324,-6.3238,0,0,-6.3241,-6.3253,-6.3274,-6.3287,-6.3301,-6.3339,-6.3401,-6.3437,-6.3464,-6.3484,-6.3535,-6.3594,-6.3551,-6.3568,-6.3543,-6.359,-6.371,-6.3538,-6.3537,-6.3569,-6.3837,-6.3871,-6.3895,-6.3683,-6.3687,-6.3689,-6.3835,0,-6.3385,-6.3494,-6.3468,-6.3575,-6.3622,-6.3567,-6.3622,-6.3635,-6.3628,-6.3666,-6.3657,-6.37,-6.3641,-6.3651,-6.3695,-6.3687,-6.3763,-6.3676,-6.3729,-6.3731,-6.3727,-6.3919,-6.3956,-6.4093,-6.3854,-6.3857,-6.3859,0,-6.3568,-6.3597,-6.371,-6.3717,-6.3736,-6.3786,-6.3816,-6.3854,-6.3868,-6.3859,-6.3879,-6.3845,-6.3905,-6.3833,-6.3915,-6.3856,-6.3876,-6.3876,-6.388,-6.3884,-6.3803,-6.3928,-6.4136,-6.4157,-6.3888,-6.3886,-6.3884,0,-6.3706,-6.3774,-6.385,-6.3863,-6.3873,-6.3909,-6.3915,-6.3925,-6.3949,-6.3975,-6.399,-6.4023,-6.4041,-6.4066,-6.4041,-6.3991,-6.4128,-6.4053,-6.4122,-6.4123,-6.4152,-6.4151,-6.4368,-6.4167,-6.4166,-6.4166,-6.4165,0,-6.387,-6.3941,-6.3913,-6.396,-6.4038,-6.4006,-6.4084,-6.4083,-6.4093,-6.4138,-6.4091,-6.4134,-6.4099,-6.4139,-6.4119,-6.4191,-6.4199,-6.4193,-6.4187,-6.4197,-6.4198,-6.4209,-6.4199,-6.4171,-6.417,-6.4169,-6.4168,0,-6.4037,-6.4022,-6.4101,-6.4105,-6.4108,-6.4165,-6.4168,-6.4211,-6.4201,-6.4258,-6.427,-6.4254,-6.4298,-6.4276,-6.4321,-6.4308,-6.4401,-6.4382,-6.4397,-6.4391,-6.4462,-6.4455,-6.4693,-6.4722,-6.4503,-6.4505,-6.4507,0,-6.4143,-6.4196,-6.4207,-6.4235,-6.4244,-6.4289,-6.4314,-6.4285,-6.4312,-6.4333,-6.4373,-6.4414,-6.4445,-6.4518,-6.4509,-6.4544,-6.4525,-6.4606,-6.453,-6.4539,-6.4526,-6.4523,-6.4528,-6.4621,-6.4624,-6.4626,-6.4628,0,-6.4331,-6.4321,-6.4359,-6.4395,-6.4426,-6.4452,-6.4474,-6.4499,-6.4471,-6.4503,-6.4549,-6.4573,-6.4621,-6.4661,-6.4692,-6.4695,-6.4657,-6.4652,-6.467,-6.468,-6.4687,-6.4684,-6.4438,-6.4646,-6.4644,-6.4643,-6.4642,-6.4641,-6.4471,-6.4516,-6.4531,-6.4575,-6.4589,-6.4611,-6.4652,-6.4648,-6.4687,-6.4724,-6.4704,-6.4758,-6.477,-6.4808,-6.4817,-6.4857,-6.4825,-6.4851,-6.4857,-6.4864,-6.4873,-6.4681,-6.4863,-6.4862,-6.4862,-6.4861,-6.4861,0,-6.4657,-6.4664,-6.4705,-6.4739,-6.4773,-6.4736,-6.4758,-6.4789,-6.4838,-6.4854,-6.4886,-6.4938,-6.4978,-6.4973,-6.5009,-6.5043,-6.5026,-6.5053,-6.505,-6.5052,-6.49,-6.4881,-6.5066,-6.5066,-6.5066,-6.5066,-6.5066,-6.5066,-6.4758,-6.4833,-6.4825,-6.4907,-6.4913,-6.4967,-6.4983,-6.5002,-6.5015,-6.5077,-6.511,-6.5108,-6.5115,-6.5152,-6.5186,-6.5184,-6.5199,-6.5233,-6.5224,-6.5082,-6.5062,-6.5043,-6.5025,-6.5236,-6.5237,-6.5371,-6.5373,-6.5373]}]]